Location: Godzisko
(49.9648°N, 19.4576°E)
Time: 06:47:10
(UTC+00:00)

ARIANE 5 R/B - Pass Details

Date: 20 April 2021
Orbit: 749 x 794 km, 98.7° (Epoch: 05 May)

Event Time Altitude Azimuth Distance (km) Brightness Sun altitude
Rises 01:58:31 0° 15° (NNE) 3,309 6.7 -14.9°
Reaches altitude 10° 02:00:52 10° 16° (NNE) 2,375 5.9 -14.6°
Maximum altitude 02:06:08 84° 104° (ESE) 805 2.6 -14.0°
Enters shadow 02:11:10 11° 194° (SSW) 2,279 4.5 -13.3°
